Regional Weather Roundup
Issued by NWS

Home | Current Version | Previous Version | Graphics & Text | Print | Product List | Glossary On
Versions: 1 2 3 4 5 6 7 8 9 10 11 12 13 14 15 16 17 18 19 20 21 22 23 24 25 26 27
000
ASUS45 KBOI 251810
RWRID

IDAHO REGIONAL WEATHER ROUNDUP
NATIONAL WEATHER SERVICE BOISE ID
1200 PM MDT THU MAY 25 2017

NOTE: "FAIR" INDICATES FEW OR NO CLOUDS BELOW 12000 FEET
WITH NO SIGNIFICANT WEATHER AND/OR OBSTRUCTIONS TO VISIBILITY

IDZ012-014-251900-
SOUTHWEST IDAHO


CITY           SKY/WX    TMP DP  RH WIND       PRES   REMARKS
BOISE          SUNNY     60  32  34 NW7       29.75F
CALDWELL       SUNNY     61  36  39 W6G22     29.77S
MOUNTAIN HOME  SUNNY     62  30  30 NW17G23   29.75S
$$

IDZ016-017-251900-
SOUTHCENTRAL IDAHO


CITY           SKY/WX    TMP DP  RH WIND       PRES   REMARKS
BURLEY         PTSUNNY   56  33  42 SW8G16    29.78R
JEROME         MOSUNNY   57  30  35 W14       29.78R
TWIN FALLS     MOSUNNY   57  30  35 W12       29.78R
$$

IDZ019>023-251900-
SOUTHEAST IDAHO


CITY           SKY/WX    TMP DP  RH WIND       PRES   REMARKS
IDAHO FALLS    MOSUNNY   55  24  30 NW9       29.79S
POCATELLO      MOSUNNY   54  29  38 NW5       29.79S
REXBURG        CLOUDY    53  20  27 NW6       29.78S
$$

IDZ006-010-011-018-031-032-251900-
CENTRAL IDAHO MOUNTAINS


CITY           SKY/WX    TMP DP  RH WIND       PRES   REMARKS
MCCALL         PTSUNNY   51  27  39 NW8       29.74F
HAILEY         MOSUNNY   54  30  40 SE10      29.79R
STANLEY          N/A     52  22  30 NE9       29.77F
SALMON         CLOUDY    54  30  40 N5        29.77F
CHALLIS        CLOUDY    50  26  39 NW5       29.78F
$$

IDZ002-004-006-007-026-251900-
NORTHERN IDAHO


CITY           SKY/WX    TMP DP  RH WIND       PRES   REMARKS
LEWISTON       CLOUDY    58  40  51 N3        29.84S
LOWELL           N/A     59  37  44 S9        29.81F
COEUR D`ALENE  CLOUDY    58  39  49 VRB7      29.85R
MULLAN PASS    CLOUDY    47  29  49 VRB3      29.84R
$$




USA.gov is the U.S. government's official web portal to all federal, state and local government web resources and services.